Tracking 33068 objects as of 24-Jan-2026
HD Live streaming from Space Station
objects crossing your sky now

SCOUT A DEB

Track SCOUT A DEB now!
10-day predictions


NORAD ID: 3214
Int'l Code: 1968-012D
Perigee: 1,018.2 km
Apogee: 1,295.3 km
Inclination: 89.8 °
Period: 108.3 minutes
Semi major axis: 7527 km
RCS: 0.049 m2 (small)
Launch date: March 2, 1968
Source: United States (US)
Launch site: AIR FORCE WESTERN TEST RANGE (AFWTR)

Note: This is SATELLITE DEBRIS
Your satellite tracking list
Your tracking list is empty




NASA's NSSDC Master Catalog

Two Line Element Set (TLE):
1  3214U 68012D   26024.23903683  .00000200  00000-0  37934-3 0  9996
2  3214  89.8235 106.0962 0184027 299.2634 115.3723 13.29242778565416
Source of the keplerian elements: AFSPC